Simultaneous Nadir Overpasses (SNOs) Predictions

Prediction of SNOs between GOES-16 and AQUA Satellite Orbit:

Table of predicted SNOs for the next 14.0 days since TLE Epoch: 11/11/2023
Index Date Time (GOES-16) GOES-16 Lat,Lon AQUA Lat,Lon Distance(km) Time Diff (sec)
1 11/11/2023 18:53:38 -0.01, -75.22 0.26, -73.95 144.34 80
2 11/12/2023 07:11:30 0.01, -75.21 0.80, -78.92 421.46 80
3 11/14/2023 06:59:11 0.01, -75.22 0.01, -75.26 4.54 80
4 11/16/2023 06:41:31 0.02, -75.23 -0.78, -71.60 413.34 80
5 11/16/2023 19:02:11 -0.01, -75.24 -0.33, -76.60 155.37 80
6 11/18/2023 18:49:50 -0.01, -75.25 0.46, -72.93 263.04 80
7 11/19/2023 07:10:22 0.01, -75.25 0.56, -77.91 302.04 80
8 11/21/2023 06:52:40 0.01, -75.27 -0.23, -74.24 117.66 80
9 11/21/2023 19:13:20 -0.00, -75.28 -0.83, -79.24 450.57 80
10 11/23/2023 18:58:17 -0.00, -75.31 -0.03, -75.57 29.37 80
